Regional Weather Roundup
Issued by NWS

Home | Current Version | Previous Version | Text Only | Print | Product List | Glossary On
Versions: 1 2 3 4 5 6 7 8 9 10 11 12 13 14 15 16 17 18 19 20 21 22 23 24 25 26 27 28 29 30 31 32 33 34 35 36 37 38 39 40 41 42 43 44 45 46 47 48 49 50
000
ASUS44 KFWD 231515
RWRTX
NORTH TEXAS HOURLY WEATHER ROUNDUP
NATIONAL WEATHER SERVICE FORT WORTH TX
1000 AM CDT SAT MAY 23 2015

NOTE: "FAIR" INDICATES FEW OR NO CLOUDS BELOW 12,000 FEET WITH NO
SIGNIFICANT WEATHER AND/OR OBSTRUCTIONS TO VISIBILITY.

TXZ118-119-231600-
DALLAS/FORT WORTH METROPLEX

CITY           SKY/WX    TMP DP  RH WIND       PRES   REMARKS
DFW AIRPORT    CLOUDY    70  69  97 SE13      30.10S FOG
DALLAS LOVE    LGT RAIN  72  69  90 SE17      30.12S FOG
FTW MEACHAM    CLOUDY    73  70  90 SE14      30.08F
DAL-EXECUTIVE  CLOUDY    72  70  93 SE13      30.10F FOG
FTW-ALLIANCE   CLOUDY    72  70  93 SE12      30.10S FOG
FTW-NAS-JRB    CLOUDY    73  70  90 SE10      30.09S
FTW-SPINKS     CLOUDY    72  70  94 SE8       30.11S FOG
ARLINGTON      CLOUDY    74  69  85 SE16      30.10S
GRAND PRAIRIE  CLOUDY    72  72 100 SE7       30.12S FOG
ADDISON        LGT RAIN  72  68  88 SE12G17   30.14R
MESQUITE       CLOUDY    72  70  94 SE8       30.14R FOG
LANCASTER      CLOUDY    71  68  92 SE9       30.13S FOG
$$

TXZ091>094-102>105-117-120-121-131>134-231600-
NORTH CENTRAL TEXAS

CITY           SKY/WX    TMP DP  RH WIND       PRES   REMARKS
SHRMAN/DENISON CLOUDY    70  69  98 SE13      30.14F FOG
GAINESVILLE    CLOUDY    69  67  96 SE13      30.13F FOG
BOWIE          CLOUDY    68  68 100 SE9       30.08F FOG
BRIDGEPORT     CLOUDY    71  71 100 SE9       30.10S FOG
DECATUR        CLOUDY    69  69 100 SE13      30.10F FOG
DENTON         CLOUDY    72  69  90 SE14      30.11S
MCKINNEY       CLOUDY    71  69  93 SE10      30.13S
GREENVILLE     LGT RAIN  70  66  88 SE12      30.15S
ROCKWALL       CLOUDY    72  70  94 SE9G16    30.13S
TERRELL        CLOUDY    72  69  90 SE12      30.14F FOG
WAXAHACHIE     CLOUDY    71  71 100 SE7       30.12F FOG
CLEBURNE       CLOUDY    72  72 100 SE13      30.10F FOG
GRANBURY         N/A     75  71  86 E14       30.08F
$$

TXZ083>090-098>101-113>116-127>130-139>142-154-155-231600-
WESTERN NORTH TEXAS

CITY           SKY/WX    TMP DP  RH WIND       PRES   REMARKS
WICHITA FALLS  CLOUDY    71  69  93 SE15      30.03F FOG
WF-KICKAPOO    CLOUDY    73  69  89 SE15      30.06F FOG
VERNON         CLOUDY    71  67  88 S15G23    30.03R
ABILENE        CLOUDY    74  67  78 SE18G25   30.02F
ABILENE-DYESS  CLOUDY    73  64  73 S16G23    29.99S
BRECKENRIDGE   CLOUDY    75  69  80 SE16G26   30.04S
GRAHAM         CLOUDY    72  71  95 SE10G16   30.04S FOG
MINERAL WELLS  CLOUDY    73  70  90 SE10      30.05F
STEPHENVILLE   CLOUDY    73  68  84 SE13G22   30.10R
COMANCHE       CLOUDY    73  71  95 S10G18    30.07R
BROWNWOOD      CLOUDY    73  68  83 S13G22    30.06S
COLEMAN        CLOUDY    74  69  83 S18G25    30.06S
BRADY          CLOUDY    73  72  94 SE14      30.05S
$$

TXZ143>147-156>162-174-175-231600-
CENTRAL TEXAS

CITY           SKY/WX    TMP DP  RH WIND       PRES   REMARKS
WACO           CLOUDY    74  71  91 SE17      30.10S
WACO-TSTC      LGT RAIN  73  72  94 SE7       30.11S
WACO-MCGREGOR  CLOUDY    73  68  83 SE14      30.11F
HILLSBORO      CLOUDY    73  71  91 SE13G18   30.11S FOG
CORSICANA      CLOUDY    73  70  90 SE13      30.13F
MEXIA          LGT RAIN  73  71  93 SE8G20    30.12S
HEARNE         CLOUDY    76  73  89 SE7       30.13S
CAMERON        LGT RAIN  76  74  93 SE6       30.11S
TEMPLE         CLOUDY    73  70  88 SE18      30.10R
KILLEEN        CLOUDY    73  72  97 S15       30.09F
KILLEEN-SKYLRK CLOUDY    73  68  83 SE13      30.10S
FORT HOOD      LGT RAIN  73  72  94 SE12      30.09S
GATESVILLE     CLOUDY    73  72  94 S12G17    30.11S FOG
LAMPASAS       CLOUDY    73  72  95 SE7       30.09S
$$

TXZ095>097-106>112-122>126-135>138-148>153-164>167-231600-
EAST TEXAS

CITY           SKY/WX    TMP DP  RH WIND       PRES   REMARKS
PARIS          CLOUDY    68  61  77 SE14      30.19S
SULPHUR SPRNGS CLOUDY    71  67  88 SE8       30.18F
MOUNT PLEASANT PTSUNNY   71  64  77 SE7       30.20S
GILMER         CLOUDY    72  67  84 SE8       30.18F
MINEOLA        CLOUDY    72  70  94 SE7       30.17F
TYLER          CLOUDY    74  68  81 SE13      30.17F
LONGVIEW       PTSUNNY   76  68  76 SE8       30.18F
MARSHALL       MOSUNNY   76  68  76 S5        30.22S
ATHENS         CLOUDY    72  68  88 SE9       30.14S
PALESTINE      CLOUDY    74  71  90 SE8       30.17F
JACKSONVILLE   CLOUDY    74  69  85 SE9       30.20S
HENDERSON      CLOUDY    74  69  83 S5        30.20S
NACOGDOCHES    PTSUNNY   75  68  78 SE7       30.18S
LUFKIN         CLOUDY    77  70  79 SE7       30.18S
$$

SUPPLEMENTAL OBSERVATIONS (CENTRAL)

CITY           SKY/WX    TMP DP  RH WIND       PRES   REMARKS
LAKE TEXOMA      N/A     68  64  88 SE7         N/A
CADDO GRASSLND   N/A     70  66  88 SE8         N/A
PAT MAYSE LAKE   N/A     66  61  82 E8          N/A
GREENVILLE       N/A     70  64  83 SE7         N/A
CEDAR HILL       N/A     73  70  88 SE7         N/A
ATHENS           N/A     73  68  83 SE12        N/A
LAKE LIMESTONE   N/A     77  72  83 SE9         N/A
MCGREGOR         N/A     73  70  88 S13         N/A
$$

SUPPLEMENTAL OBSERVATIONS (WEST)

CITY           SKY/WX    TMP DP  RH WIND       PRES   REMARKS
MILLERS CREEK    N/A     72  68  88 SE14        N/A
LBJ GRASSLAND    N/A     72  68  88 SE10        N/A
COMANCHE         N/A     73  68  83 S14G26      N/A
HAMBY            N/A     75  66  73 SE15G22     N/A
IVIE RESERVOIR   N/A     75  66  73 S13         N/A
COLORADO BEND    N/A     72  70  94 SW14G26     N/A
$$

SUPPLEMENTAL OBSERVATIONS (EAST)

CITY           SKY/WX    TMP DP  RH WIND       PRES   REMARKS
CLARKSVILLE      N/A     68  64  88 SE6         N/A
TEXARKANA        N/A     72  61  68 E3          N/A
LINDEN           N/A     73  63  68 SE3         N/A
GILMER           N/A     73  66  78 SE7         N/A
HENDERSON        N/A     75  68  78 S5          N/A
LUFKIN           N/A     75  68  78 MISG        N/A
N SABINE NF      N/A     79  75  89 MISG        N/A
S SABINE NF      N/A     79  70  73 CALM        N/A
$$

SUPPLEMENTAL OBSERVATIONS ARE A COLLECTION OF AUTOMATED INSTRUMENTS
THAT ARE MAINTAINED BY A VARIETY OF FEDERAL AND STATE AGENCIES.
CERTAIN ELEMENTS...SUCH AS HUMIDITY VALUES AND SUSTAINED WIND
SPEEDS...MAY BE APPROXIMATED.



USA.gov is the U.S. government's official web portal to all federal, state and local government web resources and services.